McGuire AFB, NJ

5:47 PM EDT on October 17, 2017 (GMT -0400)
McGuire Air Force Base

Weather History for KWRI - May, 2013

Change the Weather History Date:

Friday, May 17, 2013

  Actual Average Record
Temperature  
Mean Temperature 63 °F -  
Max Temperature 73 °F 69 °F 91 °F (2017)
Min Temperature 53 °F 49 °F 42 °F (1997)
Degree Days  
Heating Degree Days 2    
Growing Degree Days 13 (Base 50)    
Moisture  
Dew Point 44 °F    
Average Humidity 50    
Maximum Humidity 73    
Minimum Humidity 33    
Precipitation  
Precipitation 0.00 in - - ()
Sea Level Pressure  
Sea Level Pressure 30.06 in    
Wind  
Wind Speed 6 mph (NNW)    
Max Wind Speed 10 mph    
Max Gust Speed 16 mph    
Visibility 10 miles    
Events Rain    
Averages and records for this station are not official NWS values.
T = Trace of Precipitation, MM = Missing Value Source: NWS Daily Summary

Daily Weather History Graph

Daily Weather History Graph

Search for Another Location

Airport or City:

Trip Planner

Search our weather history database for the weather conditions in past years. The results will help you decide how hot, cold, wet, or windy it might be!

Date:

Astronomy

May. 17, 2013 Rise Set
Actual Time 5:41 AM EDT 8:08 PM EDT
Civil Twilight 5:10 AM EDT 8:39 PM EDT
Nautical Twilight 4:31 AM EDT 9:18 PM EDT
Astronomical Twilight 3:49 AM EDT 10:01 PM EDT
Moon 12:10 PM EDT 1:00 AM EDT
Length of Visible Light 15h 29m
Length of Day
14h 27m
Waxing Crescent, 45% of the Moon is Illuminated
May 17
Waxing Crescent
May 18
First Quarter
May 25
Full
May 31
Last Quarter
Jun 8
New

Hourly Weather History & Observations

Time (EDT) Temp. Dew Point Humidity Pressure Visibility Wind Dir Wind Speed Gust Speed Precip Events Conditions
12:58 AM 65.7 °F 55.9 °F 71% 29.86 in 10.0 mi NW 5.8 mph - N/A   Clear
1:58 AM 63.9 °F 48.9 °F 58% 29.88 in 10.0 mi NNW 4.6 mph - N/A   Clear
2:58 AM 63.9 °F 43.7 °F 48% 29.90 in 10.0 mi NNW 5.8 mph - N/A   Clear
3:58 AM 59.2 °F 43.5 °F 56% 29.93 in 10.0 mi NNW 4.6 mph - N/A   Clear
4:58 AM 53.8 °F 42.6 °F 66% 29.95 in 10.0 mi NE 4.6 mph - N/A   Clear
5:58 AM 54.9 °F 41.5 °F 61% 29.99 in 10.0 mi NNW 5.8 mph - N/A   Clear
6:58 AM 59.0 °F 43.2 °F 56% 30.02 in 10.0 mi NNW 4.6 mph - N/A   Clear
7:58 AM 62.4 °F 43.2 °F 49% 30.05 in 10.0 mi Variable 5.8 mph - N/A   Clear
8:58 AM 63.1 °F 42.8 °F 47% 30.07 in 10.0 mi North 10.4 mph - N/A   Clear
9:58 AM 64.6 °F 43.3 °F 46% 30.08 in 10.0 mi North 9.2 mph - N/A   Clear
10:58 AM 66.9 °F 43.9 °F 43% 30.09 in 10.0 mi North 6.9 mph - N/A   Clear
11:58 AM 67.6 °F 44.2 °F 43% 30.09 in 10.0 mi Variable 6.9 mph 16.1 mph N/A   Clear
12:58 PM 68.9 °F 44.2 °F 41% 30.09 in 10.0 mi NW 10.4 mph - N/A   Clear
1:58 PM 69.8 °F 43.3 °F 38% 30.09 in 10.0 mi Variable 6.9 mph - N/A   Partly Cloudy
2:58 PM 70.9 °F 43.2 °F 37% 30.08 in 10.0 mi West 8.1 mph - N/A   Partly Cloudy
3:58 PM 72.9 °F 43.9 °F 35% 30.08 in 10.0 mi WNW 8.1 mph - N/A   Clear
4:58 PM 73.6 °F 43.7 °F 34% 30.08 in 10.0 mi Variable 4.6 mph - N/A   Clear
5:58 PM 72.9 °F 41.9 °F 33% 30.10 in 10.0 mi NW 4.6 mph - N/A   Clear
6:58 PM 71.4 °F 42.3 °F 35% 30.11 in 10.0 mi Variable 1.2 mph - N/A   Clear
7:25 PM 69.8 °F 42.8 °F 38% 30.10 in 10.0 mi North 2.3 mph - N/A Rain Light Rain
7:58 PM 68.5 °F 43.7 °F 41% 30.12 in 9.0 mi NE 1.2 mph - 0.00 in Rain Light Rain
8:23 PM 62.6 °F 46.4 °F 55% 30.12 in 10.0 mi SE 9.2 mph - N/A   Clear
8:58 PM 61.3 °F 45.9 °F 57% 30.15 in 10.0 mi SSE 6.9 mph - 0.00 in   Clear
9:58 PM 58.1 °F 45.0 °F 62% 30.17 in 10.0 mi South 6.9 mph - N/A   Clear
10:58 PM 55.4 °F 45.3 °F 69% 30.18 in 10.0 mi South 4.6 mph - N/A   Clear
11:58 PM 54.9 °F 46.2 °F 73% 30.19 in 10.0 mi Calm Calm - N/A   Clear